TimeCDT,TemperatureF,Dew PointF,Humidity,Sea Level PressureIn,VisibilityMPH,Wind Direction,Wind SpeedMPH,Gust SpeedMPH,PrecipitationIn,Events,Conditions,WindDirDegrees,DateUTC
12:36 AM,62.6,60.8,94,29.84,10.0,South,9.2,-,N/A,,Overcast,170,2013-03-10 06:36:00
12:56 AM,62.1,60.1,93,29.83,10.0,SSE,9.2,-,0.00,,Overcast,150,2013-03-10 06:56:00
1:56 AM,63.0,60.1,90,29.80,10.0,SSE,10.4,-,N/A,,Overcast,160,2013-03-10 07:56:00
3:56 AM,63.0,60.1,90,29.79,10.0,SSE,9.2,-,N/A,,Overcast,160,2013-03-10 08:56:00
4:56 AM,64.0,60.1,87,29.73,10.0,SSE,15.0,-,N/A,,Overcast,150,2013-03-10 09:56:00
5:56 AM,64.0,60.1,87,29.71,10.0,South,15.0,-,N/A,,Overcast,170,2013-03-10 10:56:00
6:56 AM,64.4,60.8,88,29.73,7.0,South,15.0,21.9,N/A,Rain,Light Rain,170,2013-03-10 11:56:00
7:05 AM,64.4,60.8,88,29.73,7.0,South,13.8,-,0.01,Rain-Thunderstorm,Light Thunderstorms and Rain,170,2013-03-10 12:05:00
7:45 AM,64.4,62.6,94,29.79,7.0,NW,19.6,35.7,0.04,Rain,Light Rain,310,2013-03-10 12:45:00
7:49 AM,59.0,55.4,88,29.79,0.2,NW,26.5,35.7,0.06,Fog-Rain,Heavy Rain,310,2013-03-10 12:49:00
7:54 AM,55.4,51.8,88,29.77,1.5,NW,24.2,36.8,0.25,Rain,Heavy Rain,320,2013-03-10 12:54:00
7:56 AM,54.0,52.0,93,29.78,1.5,NW,24.2,36.8,0.26,Rain,Rain,320,2013-03-10 12:56:00
8:00 AM,53.6,51.8,94,29.78,2.0,NNW,20.7,31.1,0.01,Rain,Rain,330,2013-03-10 13:00:00
8:07 AM,53.6,51.8,94,29.79,2.0,NNW,18.4,27.6,0.02,Rain,Rain,330,2013-03-10 13:07:00
8:23 AM,53.6,51.8,94,29.79,4.0,NNW,13.8,25.3,0.06,Rain,Light Rain,340,2013-03-10 13:23:00
8:53 AM,53.6,51.8,94,29.82,2.5,NW,17.3,21.9,0.11,Rain,Heavy Rain,310,2013-03-10 13:53:00
8:56 AM,54.0,51.1,90,29.82,2.5,NW,13.8,21.9,0.13,Rain,Rain,310,2013-03-10 13:56:00
9:44 AM,53.6,51.8,94,29.87,2.0,NW,11.5,-,0.22,Rain,Rain,310,2013-03-10 14:44:00
9:47 AM,53.6,51.8,94,29.86,4.0,NW,9.2,-,0.22,Rain,Light Rain,320,2013-03-10 14:47:00
9:51 AM,53.6,51.8,94,29.85,6.0,NNW,8.1,-,0.22,Rain,Light Rain,340,2013-03-10 14:51:00
9:56 AM,54.0,52.0,93,29.83,5.0,North,8.1,-,0.23,Rain,Rain,350,2013-03-10 14:56:00
10:56 AM,53.1,51.1,93,29.85,3.0,East,3.5,-,0.05,Rain,Heavy Rain,100,2013-03-10 15:56:00
10:58 AM,53.6,51.8,94,29.85,2.0,East,3.5,-,0.02,Rain,Heavy Rain,90,2013-03-10 15:58:00
11:04 AM,53.6,51.8,94,29.85,5.0,Calm,Calm,-,0.03,Rain,Light Rain,0,2013-03-10 16:04:00
11:56 AM,54.0,52.0,93,29.84,10.0,SE,4.6,-,0.07,Rain,Light Rain,130,2013-03-10 16:56:00
11:59 AM,53.6,51.8,94,29.85,10.0,SE,5.8,-,0.00,Rain,Light Rain,130,2013-03-10 16:59:00
12:12 PM,53.6,53.6,100,29.87,10.0,South,5.8,-,0.00,Rain,Light Rain,190,2013-03-10 17:12:00
12:18 PM,53.6,51.8,94,29.88,10.0,South,9.2,-,0.00,,Overcast,180,2013-03-10 17:18:00
12:31 PM,55.4,53.6,94,29.88,7.0,SSE,8.1,-,0.01,Rain,Light Rain,160,2013-03-10 17:31:00
12:41 PM,53.6,53.6,100,29.87,7.0,Variable,3.5,-,0.01,Rain,Light Rain,0,2013-03-10 17:41:00
12:56 PM,55.0,53.1,93,29.87,10.0,South,4.6,-,0.01,Rain,Light Rain,180,2013-03-10 17:56:00
1:24 PM,55.4,53.6,94,29.87,10.0,South,6.9,-,0.00,,Overcast,190,2013-03-10 18:24:00
1:50 PM,55.4,53.6,94,29.88,10.0,South,4.6,-,0.00,,Overcast,180,2013-03-10 18:50:00
1:56 PM,55.9,53.1,90,29.87,9.0,South,5.8,-,0.00,Rain,Light Rain,180,2013-03-10 18:56:00
1:59 PM,55.4,53.6,94,29.87,10.0,South,6.9,-,0.01,Rain,Light Rain,180,2013-03-10 18:59:00
2:19 PM,57.2,53.6,88,29.87,10.0,South,6.9,-,0.01,,Mostly Cloudy,170,2013-03-10 19:19:00
2:27 PM,57.2,53.6,88,29.86,10.0,South,6.9,-,0.01,,Overcast,190,2013-03-10 19:27:00
2:56 PM,60.1,55.0,83,29.85,10.0,South,6.9,-,0.01,,Overcast,190,2013-03-10 19:56:00
3:24 PM,59.0,53.6,82,29.86,10.0,South,8.1,-,N/A,,Overcast,180,2013-03-10 20:24:00
3:33 PM,57.2,53.6,88,29.86,10.0,WNW,9.2,-,N/A,,Overcast,300,2013-03-10 20:33:00
3:46 PM,59.0,51.8,77,29.86,10.0,West,9.2,-,N/A,,Overcast,280,2013-03-10 20:46:00
3:56 PM,61.0,52.0,72,29.86,10.0,West,10.4,-,N/A,,Mostly Cloudy,270,2013-03-10 20:56:00
4:56 PM,63.0,44.1,50,29.84,10.0,WNW,15.0,-,N/A,,Scattered Clouds,290,2013-03-10 21:56:00
5:56 PM,61.0,39.9,46,29.85,10.0,West,16.1,-,N/A,,Scattered Clouds,280,2013-03-10 22:56:00
6:56 PM,57.0,39.9,53,29.87,10.0,NW,20.7,24.2,N/A,,Partly Cloudy,310,2013-03-10 23:56:00
7:56 PM,51.1,37.9,61,29.92,10.0,NW,20.7,26.5,N/A,,Partly Cloudy,310,2013-03-11 00:56:00
8:56 PM,48.0,37.0,66,29.96,10.0,WNW,16.1,24.2,N/A,,Partly Cloudy,300,2013-03-11 01:56:00
9:56 PM,46.9,35.1,63,30.00,10.0,NW,8.1,-,N/A,,Partly Cloudy,310,2013-03-11 02:56:00
10:56 PM,46.9,35.1,63,30.02,10.0,WNW,5.8,-,N/A,,Overcast,300,2013-03-11 03:56:00
11:56 PM,46.9,35.1,63,30.01,10.0,NW,17.3,-,N/A,,Overcast,310,2013-03-11 04:56:00
12:56 AM,44.1,28.9,55,30.03,10.0,WNW,11.5,-,N/A,,Scattered Clouds,290,2013-03-11 05:56:00